Location: Beauvezer
(44.1500°N, 6.6000°E)
Time: 14:02:17
(UTC+00:00)

Daily predictions for brighter satellites

Satellite Brightness Start Highest point End
(mag) Time Altitude Azimuth Time Altitude Azimuth Time Altitude Azimuth
Meteor 2-6 Rocket 4.2 19:33:03 10° S 19:38:30 62° E 19:43:52 10° NNE
Cosmos 1842 Rocket 4.0 19:34:34 10° SSE 19:38:43 42° E 19:42:53 10° NNE
Cosmos 2034 Rocket 4.4 19:32:30 10° NNW 19:38:44 72° W 19:45:01 10° S
Cosmos 1943 3.2 19:33:53 10° SSW 19:39:32 74° ESE 19:45:12 10° NNE
Cosmos 1536 4.1 19:38:46 10° NNE 19:42:02 25° ENE 19:45:19 10° SE
ISS -3.2 19:38:57 10° WNW 19:42:14 50° SW 19:45:29 10° SE
SeaSat 1 2.8 19:38:37 10° SSE 19:43:29 65° WSW 19:48:23 10° NNW
Cosmos 1048 Rocket 3.9 19:39:17 10° SSW 19:44:24 75° ESE 19:49:31 10° NNE
USA 229 DEB 4.3 19:37:24 10° NW 19:44:55 73° WSW 19:52:59 10° SSE
USA 229 4.3 19:37:30 10° NW 19:45:01 74° WSW 19:53:06 10° SSE
BREEZE-M DEB (TANK) 3.5 19:42:36 10° WSW 19:45:57 90° NW 19:54:06 10° ENE
Terra 3.2 19:44:22 10° ESE 19:48:05 24° ENE 19:51:49 10° NNE
Meteor 1-14 Rocket 4.4 19:43:06 10° N 19:49:02 75° ENE 19:55:00 10° SSE
Okean 3 Rocket 3.7 19:46:39 10° N 19:50:59 57° E 19:55:15 10° SSE
Cosmos 1331 Rocket 4.1 19:49:37 10° NNW 19:54:49 64° ENE 19:59:57 10° SSE
Resurs 01 Rocket 2.7 19:54:43 10° S 19:58:56 44° W 20:03:11 10° NNW
Tsikada Rocket 4.4 19:54:05 10° SSW 20:00:16 71° W 20:06:34 10° N
Cosmos 1743 3.3 19:59:18 10° NNW 20:02:50 52° W 20:06:21 10° S
Okean O Rocket 2.6 19:59:07 10° S 20:03:23 48° W 20:07:41 10° NNW
Cosmos 1766 Rocket 4.2 19:59:09 10° NNW 20:03:32 57° W 20:07:53 10° S
BREEZE-M DEB (TANK) 3.3 20:00:51 10° WSW 20:03:35 80° NNW 20:12:04 10° ENE
MOS 1 4.3 19:58:34 10° SSE 20:04:14 80° ENE 20:09:54 10° NNW
Cosmos 1110 Rocket 4.1 20:00:27 10° NNW 20:05:48 86° ENE 20:11:05 10° SSE
FALCON 9 R/B 3.5 20:03:11 10° WSW 20:07:25 34° S 20:18:35 10° ESE
Spot 2 Rocket 4.2 20:10:35 13° SE 20:14:41 38° ENE 20:19:20 10° N
Cosmos 1340 3.7 20:13:25 10° NNE 20:16:18 25° ENE 20:18:12 16° ESE
Lacrosse 5 rocket 4.2 20:16:41 10° NW 20:19:01 14° N 20:21:19 10° NNE
Cosmos 1743 Rocket 4.3 20:15:26 10° N 20:19:34 37° ENE 20:22:37 16° SE
Lacrosse 4 Rocket 3.1 20:16:28 10° N 20:19:43 22° NE 20:22:48 11° E
CZ-4 R/B 4.5 20:21:17 10° W 20:21:49 10° W 20:22:21 10° W
Meteor 1-27 Rocket 3.8 20:20:09 10° S 20:25:30 56° E 20:30:56 10° NNE
USA 306 3.5 20:22:02 10° WNW 20:25:37 40° SW 20:28:14 17° SSE
Cosmos 1408 Rocket 3.5 20:22:17 10° N 20:26:46 79° E 20:30:33 14° SSE
Cosmos 1733 3.5 20:25:18 10° N 20:28:38 41° ENE 20:30:34 21° SE
Cosmos 1340 Rocket 3.1 20:25:27 14° SSE 20:28:39 46° E 20:32:28 10° NNE
CZ-4C R/B 3.9 20:25:40 10° N 20:29:31 60° WNW 20:33:30 10° SSW
NOSS 3-3 (C) 4.4 20:25:03 10° S 20:29:40 32° ESE 20:34:53 10° NE
IRS-1A Rocket 4.2 20:24:31 12° SSE 20:29:45 86° ENE 20:35:19 10° NNW
Cosmos 1626 4.0 20:33:21 11° E 20:33:23 11° E 20:34:31 10° ENE
SPOT 5 2.9 20:30:01 11° S 20:34:18 68° WSW 20:38:39 10° NNW
Cosmos 1151 Rocket 3.6 20:32:39 18° SSE 20:35:26 40° E 20:39:29 10° NNE
Ariane Rocket 3.2 20:34:06 18° SSE 20:37:48 59° ENE 20:42:49 10° N
Cosmos 1833 Rocket 4.0 20:43:39 18° ESE 20:45:09 20° E 20:49:09 10° NE
Cosmos 1726 3.4 20:42:41 10° NNW 20:45:28 30° W 20:48:11 10° SSW
SPOT 3 Rocket 3.6 20:42:08 20° SSE 20:45:40 63° ENE 20:50:46 10° N
Landsat 5 4.2 20:43:18 10° NE 20:46:42 30° E 20:47:52 25° SE
Cosmos 1818 3.7 20:42:53 10° SSW 20:48:08 52° ESE 20:53:28 10° NE
IRS-1C Rocket 4.5 20:43:34 12° S 20:48:20 61° WSW 20:53:34 10° NNW
Meteor 2-17 Rocket 4.4 20:44:52 12° S 20:50:30 73° E 20:56:33 10° NNE
Nadezhda 4 Rocket 4.0 20:46:07 12° S 20:51:55 75° E 20:58:12 10° NNE
Okean-O 4.4 20:48:44 10° SSW 20:52:30 28° W 20:56:19 10° NW
USA 245 2.4 20:52:10 37° SSW 20:52:48 55° W 20:55:14 10° NNW
ERS-1 Rocket 3.1 20:49:15 17° S 20:53:09 74° WSW 20:58:12 10° NNW
Cosmos 1805 3.6 20:49:58 10° N 20:53:32 43° ENE 20:54:55 29° SE
Cosmos 2369 Rocket 4.5 20:50:03 10° WNW 20:53:37 17° W 20:57:10 10° SW
Okean 1 3.9 20:50:08 10° SSW 20:53:54 54° W 20:57:45 10° N
Cosmos 1656 4.2 20:48:46 10° NNW 20:54:01 46° ENE 20:57:19 22° ESE
Cosmos 220 Rocket 3.9 20:52:37 16° S 20:56:02 65° ESE 21:00:19 10° NNE
Cosmos 614 Rocket 3.9 20:53:21 10° SSW 20:58:31 77° ESE 21:03:46 10° NNE
Cosmos 1500 Rocket 4.0 20:58:37 10° NNW 21:02:51 56° W 21:05:46 19° SSW
Cosmos 1975 3.2 21:01:02 10° N 21:04:50 45° ENE 21:06:07 33° SE
Cosmos 1269 Rocket 4.2 21:08:16 25° SSE 21:11:03 51° ESE 21:16:09 10° NNE
SL-8 R/B 4.4 21:06:35 10° WNW 21:11:14 51° N 21:15:53 10° E
USA 59 Rocket 0.2 21:08:15 10° NW 21:12:22 81° SW 21:15:04 30° SSE
Cosmos 1805 Rocket 4.2 21:09:56 10° NNW 21:14:13 52° W 21:16:58 21° SSW
NOSS 2-1 (E) 3.8 21:11:04 10° NW 21:15:11 77° SW 21:17:49 30° SSE
Sich 1 3.7 21:11:00 10° NNW 21:15:15 50° W 21:17:57 21° SSW
DELTA 2 R/B (1) 3.9 21:11:30 10° SW 21:16:45 43° SSE 21:20:14 20° ESE
Cosmos 1633 Rocket 3.5 21:14:05 10° N 21:18:21 47° ENE 21:19:46 34° SE
Cosmos 1666 Rocket 3.5 21:19:03 10° N 21:23:21 65° E 21:24:44 40° SE
GEOS 3 Rocket 3.7 21:19:35 10° NE 21:24:36 49° ESE 21:27:03 27° S
Terra 2.8 21:22:25 19° SSW 21:25:26 40° W 21:29:54 10° NNW
Spot 1 4.0 21:21:47 10° NNE 21:25:56 83° WNW 21:28:15 27° SSW
NOSS 2-1 (D) 4.1 21:24:09 10° NW 21:28:13 56° SW 21:30:22 32° S
Cosmos 2026 Rocket 3.9 21:26:46 25° S 21:30:36 78° E 21:36:50 10° N
Cosmos 1992 Rocket 4.0 21:29:48 10° NNW 21:35:01 76° WSW 21:37:11 36° S
Cosmos 1627 Rocket 4.5 21:38:50 25° S 21:42:44 87° W 21:49:02 10° N
Cosmos 1697 Rocket 3.2 21:39:20 10° NNW 21:44:47 48° ENE 21:47:10 30° ESE
Cosmos 1607 4.1 21:42:38 28° S 21:45:58 58° ESE 21:52:20 10° NE
NOSS 3-3 (A) 4.0 21:41:33 10° SW 21:46:57 70° NW 21:53:15 10° NE
USA 281 3.2 21:44:56 32° SSE 21:48:13 78° WSW 21:54:52 10° NNW
Cosmos 1707 4.0 21:52:01 26° ENE 21:52:01 26° ENE 21:54:35 10° NNE
Orbus 7S? 3.4 21:46:27 10° SW 21:52:40 81° SE 21:55:52 10° NE
ALOS 2 4.5 21:51:27 17° E 21:52:43 19° ENE 21:55:45 10° NNE
Cosmos 1980 Rocket 3.6 21:49:21 10° N 21:54:21 30° NE 21:57:19 19° E
Cosmos 1140 Rocket 3.6 21:55:41 45° SSE 21:56:49 54° ESE 22:01:54 10° NNE
Lacrosse 4 Rocket 2.0 21:54:16 10° NW 21:58:08 41° WSW 21:58:43 38° SW
Lacrosse 5 rocket 3.6 21:55:27 10° NNW 21:58:42 21° NNE 22:01:52 10° ENE
Meteor 2-4 Rocket 4.5 21:58:17 18° SSW 22:02:31 53° WNW 22:08:20 10° N
H-2A R/B 3.3 22:02:00 36° E 22:02:40 39° ENE 22:06:39 10° N
Cosmos 1066 Rocket 4.2 22:00:44 35° S 22:03:20 88° W 22:09:14 10° N
NOSS 3-4 (A) 4.3 21:58:33 10° NNW 22:05:18 58° NE 22:10:02 25° ESE
NOSS 3-4 (C) 4.3 21:58:39 10° NNW 22:05:24 57° NE 22:10:09 24° ESE
Cosmos 1626 3.1 22:06:08 32° W 22:06:33 33° WNW 22:09:31 10° N
Cosmos 1842 3.3 22:07:26 57° ENE 22:07:26 57° ENE 22:10:46 10° NNE
Cosmos 1553 Rocket 3.9 22:01:56 10° N 22:08:02 80° E 22:10:14 42° SSE
BREEZE-M DEB (TANK) 3.6 22:07:38 10° NW 22:09:37 32° NNE 22:10:18 27° NE
BREEZE-M DEB (TANK) 3.6 22:11:16 17° SW 22:14:39 78° SSE 22:30:19 10° ENE
KORONAS-FOTON 3.8 22:18:54 69° NE 22:18:54 69° NE 22:22:17 10° NNE
ARIANE 5 R/B 2.4 22:18:32 69° S 22:19:03 84° W 22:23:22 10° NNW
CZ-2C R/B 3.7 22:16:18 10° N 22:20:46 75° WNW 22:21:42 54° SW
Cosmos 1674 2.7 22:21:29 67° NNW 22:21:29 67° NNW 22:24:40 10° N
Cosmos 2285 Rocket 3.9 22:21:35 43° S 22:23:45 73° ESE 22:30:06 10° NNE
ATLAS CENTAUR R/B 4.5 22:10:07 10° NW 22:24:27 82° SW 22:30:30 32° SE
COSMOS 2406 4.0 22:27:11 33° ESE 22:27:30 33° ESE 22:32:35 10° NE
Cosmos 1833 Rocket 3.1 22:25:15 25° SW 22:28:32 61° WNW 22:34:06 10° NNE
Cosmos 1766 4.1 22:27:05 10° NNW 22:30:35 37° W 22:30:39 37° W
Cosmos 1763 Rocket 4.3 22:26:56 10° N 22:32:00 43° ENE 22:33:32 34° ESE
SL-16 R/B 4.5 22:28:49 10° N 22:32:30 17° NE 22:36:09 10° E
Cosmos 407 Rocket 3.4 22:34:46 58° S 22:35:49 80° ESE 22:41:05 10° NNE
Cosmos 724 4.3 22:34:15 30° SW 22:37:18 77° NW 22:43:10 10° NNE
H-2A R/B 3.8 22:34:49 10° NE 22:37:41 20° E 22:37:41 20° E
Cosmos 1515 Rocket 4.2 22:38:30 42° WSW 22:39:18 48° WNW 22:43:29 10° N
Cosmos 2082 Rocket 2.4 22:38:49 48° SE 22:39:29 50° ESE 22:45:00 10° NE
Cosmos 2266 Rocket 3.9 22:38:38 48° S 22:40:26 77° E 22:46:43 10° N
BREEZE-M DEB (TANK) 3.1 22:42:14 63° WNW 22:42:37 72° NNW 22:48:54 10° ENE
Cosmos 1470 3.1 22:40:28 10° NNW 22:43:42 54° WNW 22:43:42 54° WNW
Cosmos 44 Rocket 3.5 22:39:58 10° NW 22:44:45 53° WSW 22:44:56 53° SW
Cosmos 1733 Rocket 4.3 22:43:56 10° NNE 22:47:44 29° ENE 22:48:07 28° E
Meteor 1-13 Rocket 4.2 22:46:35 52° S 22:48:09 87° E 22:54:03 10° N
Cosmos 1190 Rocket 4.1 22:48:13 54° SE 22:48:41 57° ESE 22:53:53 10° NNE
Cosmos 1869 Rocket 3.4 22:49:22 10° N 22:53:45 89° W 22:53:51 86° S
SL-8 R/B 3.5 22:49:08 10° WNW 22:53:54 82° SSW 22:54:04 79° S
Cosmos 2228 Rocket 3.6 22:58:02 46° E 22:58:02 46° E 23:02:16 10° NNE
Cosmos 1655 Rocket 4.0 22:57:28 50° SSE 22:59:13 75° E 23:05:36 10° NNE
Cosmos 2251 Rocket 3.6 22:59:14 50° SW 23:00:32 70° WNW 23:05:50 10° NNE
USA 59 Rocket 2.8 23:00:36 10° W 23:01:37 11° WSW 23:01:37 11° WSW
Meteor 2-10 Rocket 3.9 22:56:17 10° N 23:02:04 62° ENE 23:03:24 48° SE
DELTA 2 R/B (1) 4.2 22:57:19 10° WSW 23:01:00 38° SW 23:01:00 38° SW
Cosmos 1908 4.2 23:03:51 10° NNW 23:06:34 38° WNW 23:06:34 38° WNW
Meteor 1-22 Rocket 4.0 23:02:58 10° N 23:08:21 87° W 23:09:19 62° S
Cosmos 1346 Rocket 3.9 23:10:43 10° N 23:14:08 35° ENE 23:14:08 35° ENE
Cosmos 1400 Rocket 3.0 23:15:48 68° NNE 23:15:48 68° NNE 23:19:20 10° NNE
GP-B 3.0 23:14:12 10° N 23:18:36 73° E 23:18:36 73° E
Meteor 1-21 4.4 23:18:44 52° SE 23:19:44 60° E 23:25:24 10° NNE
SL-24 R/B 4.4 23:15:58 10° NNE 23:20:49 86° ESE 23:21:33 67° S
Meteor 1-15 Rocket 4.2 23:15:40 10° NNW 23:21:15 68° W 23:22:13 57° SSW
Cosmos 1862 Rocket 3.6 23:26:10 65° E 23:26:10 65° E 23:30:18 10° NNE
Cosmos 2322 Rocket 4.0 23:23:37 10° N 23:28:22 26° NE 23:32:46 11° ESE
Cosmos 1697 Rocket 3.9 23:23:50 10° NW 23:28:25 26° WSW 23:28:53 26° WSW
ALOS 2 3.1 23:28:50 47° W 23:28:50 47° W 23:32:57 10° NNW
Cosmos 1356 Rocket 3.6 23:29:58 62° ENE 23:29:58 62° ENE 23:33:42 10° NNE
SJ 16-02 3.7 23:34:22 12° E 23:34:22 12° E 23:35:54 10° ENE
USA 267 3.4 23:28:25 10° ENE 23:34:46 52° SE 23:35:51 47° SSE
PSLV R/B 3.5 23:32:17 10° N 23:36:44 74° WNW 23:36:50 73° W
Cosmos 1300 3.4 23:33:33 10° NNW 23:36:14 47° NNW 23:36:14 47° NNW
Lacrosse 5 rocket 1.5 23:33:28 10° NW 23:37:07 66° NNW 23:37:07 66° NNW
H-2A R/B 4.4 23:37:59 20° W 23:37:59 20° W 23:40:53 10° NW
Cosmos 1980 Rocket 2.6 23:33:06 10° NW 23:38:32 47° WSW 23:39:03 45° SW
Cosmos 381 Rocket 4.5 23:32:46 10° NNW 23:39:11 74° WSW 23:40:42 53° S
Cosmos 2333 Rocket 4.2 23:36:19 10° N 23:40:56 24° NE 23:45:33 10° ESE
Cosmos 1953 3.3 23:41:51 10° N 23:45:27 36° ENE 23:45:27 36° ENE
SL-14 R/B 4.0 23:48:27 45° WNW 23:48:27 45° WNW 23:51:46 10° N
Cosmos 1707 Rocket 3.8 23:49:21 56° W 23:49:30 57° W 23:53:54 10° N
